[[[{"header":{"parameterUnit":"kt","parameterCategory":2,"dx":1,"dy":1,"la1":30.253999710083008,"la2":30.299108505249023,"lo1":-89.0895004272461,"lo2":-89.04439544677734,"nx":28,"ny":28,"refTime":"2022-10-19T09:00:00:Z","depth":0,"parameterNumber":1,"parameterNumberName":"U-component_of_WINDS"},"data":[-2.815,-2.8178,-2.8203,-2.8247,-2.8277,-2.831,-2.833,-2.8359,-2.8388,-2.843,-2.8459,-2.8487,-2.8525,-2.8565,-2.8596,-2.8608,-2.8619,-2.8611,-2.8626,-2.8641,-2.8645,-2.8648,-2.8644,-2.8613,-2.8613,-2.8606,-2.8606,-2.8606,-2.816,-2.819,-2.822,-2.8267,-2.8293,-2.8317,-2.8356,-2.8375,-2.8405,-2.844,-2.847,-2.8509,-2.8543,-2.8584,-2.8621,-2.8634,-2.8646,-2.8641,-2.8641,-2.8646,-2.8664,-2.8659,-2.8631,-2.8631,-2.8631,-2.8631,-2.8631,-2.8631,-2.8184,-2.82,-2.8243,-2.8276,-2.8307,-2.8338,-2.8357,-2.8391,-2.842,-2.8462,-2.8486,-2.8519,-2.8559,-2.8615,-2.8639,-2.8665,-2.8675,-2.8677,-2.8678,-2.8677,-2.8674,-2.8681,-2.8673,-2.8673,-2.8673,-2.8673,-2.8673,0,-2.821,-2.823,-2.8261,-2.83,-2.8325,-2.8357,-2.8391,-2.8403,-2.8454,-2.8476,-2.851,-2.8533,-2.8579,-2.8613,-2.8653,-2.8678,-2.8704,-2.8709,-2.8711,-2.8699,-2.8684,-2.8692,-2.8719,-2.8709,-2.8709,-2.8709,-2.871,-2.871,-2.8236,-2.8251,-2.8309,-2.8327,-2.8352,-2.838,-2.8402,-2.8446,-2.8467,-2.8514,-2.8525,-2.8561,-2.8591,-2.864,-2.8678,-2.8712,-2.8724,-2.8718,-2.873,-2.8718,-2.8724,-2.8722,-2.8724,-2.8714,-2.8713,-2.8713,-2.8713,0,-2.8248,-2.829,-2.8322,-2.8377,-2.8391,-2.8405,-2.8452,-2.8469,-2.85,-2.8527,-2.8536,-2.8584,-2.8616,-2.8656,-2.87,-2.872,-2.8741,-2.8753,-2.8728,-2.8733,-2.873,-2.873,-2.8717,-2.8717,-2.875,-2.8749,-2.8749,0,-2.8286,-2.8304,-2.8366,-2.8382,-2.8404,-2.8448,-2.8467,-2.8496,-2.8532,-2.8554,-2.859,-2.8609,-2.8658,-2.8683,-2.8712,-2.8737,-2.8745,-2.8761,-2.8769,-2.8758,-2.8756,-2.8769,-2.877,-2.8785,-2.8785,-2.8785,-2.8785,0,-2.83,-2.8355,-2.8381,-2.84,-2.8461,-2.8472,-2.8497,-2.8538,-2.8558,-2.8592,-2.8606,-2.8641,-2.866,-2.8687,-2.8724,-2.873,-2.8755,-2.8772,-2.8771,-2.877,-2.8774,-2.8773,-2.8752,-2.8785,-2.8785,-2.8785,-2.8785,0,-2.8337,-2.8372,-2.8404,-2.8456,-2.8468,-2.8485,-2.8524,-2.8548,-2.8587,-2.8607,-2.8634,-2.8662,-2.8687,-2.8701,-2.8736,-2.8734,-2.8751,-2.8769,-2.877,-2.8774,-2.8788,-2.877,-2.8747,-2.8746,-2.8778,-2.8778,-2.8778,0,-2.8342,-2.8386,-2.8425,-2.8454,-2.848,-2.852,-2.8539,-2.8573,-2.8602,-2.8627,-2.8658,-2.8686,-2.8705,-2.8719,-2.8732,-2.8764,-2.8767,-2.8765,-2.88,-2.88,-2.8788,-2.8767,-2.8753,-2.8748,-2.8778,-2.8778,-2.8778,0,-2.8351,-2.8425,-2.8427,-2.8451,-2.8504,-2.8526,-2.8548,-2.8587,-2.8601,-2.8636,-2.8655,-2.8696,-2.8712,-2.8735,-2.8761,-2.8772,-2.8766,-2.8787,-2.8789,-2.8782,-2.8781,-2.8768,-2.8767,-2.8782,-2.8782,-2.8782,-2.8778,0,-2.8397,-2.8424,-2.8433,-2.8484,-2.8507,-2.8528,-2.8571,-2.859,-2.8614,-2.8643,-2.8673,-2.871,-2.8748,-2.8757,-2.878,-2.8792,-2.8796,-2.8812,-2.8828,-2.8814,-2.8814,-2.8814,-2.8825,-2.8826,-2.8826,-2.8827,0,0,-2.839,-2.8431,-2.8472,-2.8496,-2.8518,-2.8559,-2.8577,-2.8603,-2.8654,-2.8668,-2.8678,-2.874,-2.877,-2.8801,-2.88,-2.8815,-2.8821,-2.8824,-2.882,-2.8819,-2.8819,-2.8818,-2.8817,-2.8828,-2.8828,-2.8828,-2.8828,0,-2.8416,-2.8448,-2.8466,-2.8496,-2.854,-2.8571,-2.8575,-2.8626,-2.8646,-2.8675,-2.8707,-2.873,-2.8778,-2.8806,-2.8826,-2.8821,-2.8843,-2.883,-2.8813,-2.8825,-2.8823,-2.8822,-2.882,-2.8819,-2.883,-2.883,-2.883,0,-2.8432,-2.8471,-2.8484,-2.8537,-2.8567,-2.8592,-2.862,-2.8645,-2.8664,-2.8706,-2.8734,-2.876,-2.8801,-2.8824,-2.8837,-2.8845,-2.8862,-2.8864,-2.8861,-2.8863,-2.8877,-2.8875,-2.8873,-2.8897,-2.8897,-2.8897,0,0,-2.8448,-2.8475,-2.8529,-2.8546,-2.8562,-2.8608,-2.8626,-2.8652,-2.8688,-2.8702,-2.8737,-2.877,-2.8799,-2.8816,-2.8845,-2.8865,-2.8877,-2.8871,-2.8867,-2.8865,-2.8865,-2.8878,-2.8876,-2.8898,-2.8898,-2.8898,0,0,-2.8456,-2.852,-2.8538,-2.8564,-2.8598,-2.8652,-2.866,-2.8683,-2.8714,-2.8716,-2.876,-2.877,-2.8794,-2.8818,-2.8816,-2.8851,-2.8866,-2.8867,-2.8834,-2.8831,-2.8828,-2.8821,-2.8849,0,0,0,0,0,-2.8505,-2.8513,-2.8528,-2.8539,-2.8606,-2.8643,-2.8652,-2.8689,-2.8699,-2.8705,-2.8737,-2.876,-2.8826,-2.8826,-2.8835,-2.8836,-2.8901,-2.89,-2.89,-2.8862,-2.8858,-2.8855,0,0,0,0,0,0,-2.851,-2.8523,-2.8528,-2.8582,-2.8597,-2.8643,-2.8668,-2.8679,-2.8699,-2.8703,-2.8753,-2.8761,-2.8793,-2.8823,-2.8831,-2.8832,-2.8846,-2.8901,-2.89,-2.89,-2.8861,-2.8858,-2.8855,0,0,0,0,0,-2.8513,-2.8524,-2.8621,-2.8582,-2.8595,-2.8647,-2.8668,-2.8677,-2.8694,-2.8744,-2.8753,-2.872,-2.8792,-2.8801,-2.8828,-2.8827,-2.8841,-2.8844,-2.89,-2.89,-2.89,-2.8859,0,0,0,0,0,0,-2.8516,-2.8532,-2.8625,-2.863,-2.8582,-2.8645,-2.8656,-2.8676,-2.8734,-2.8743,-2.8713,-2.8715,-2.8791,-2.8798,-2.8805,-2.8824,-2.8837,-2.884,-2.8841,-2.89,-2.89,-2.8899,0,0,0,0,0,0,-2.8527,-2.8536,-2.8627,-2.8625,-2.8631,-2.8643,-2.8653,-2.8681,-2.8734,-2.8699,-2.8703,-2.8713,-2.878,-2.8797,-2.8802,-2.8845,-2.8834,-2.8836,-2.8838,-2.8839,-2.89,-2.8899,0,0,0,0,0,0,-2.8531,-2.854,-2.8624,-2.8628,-2.8633,-2.8696,-2.8668,-2.8734,-2.8733,-2.8696,-2.8734,-2.8735,-2.8778,-2.8784,-2.88,-2.884,-2.8843,-2.8834,-2.8835,-2.8837,-2.8838,0,0,0,0,0,0,0,-2.8535,-2.8471,-2.8593,-2.8631,-2.8635,-2.868,-2.8681,-2.8683,-2.8733,-2.8734,-2.8734,-2.8734,-2.8818,-2.8821,-2.8824,-2.8836,0,0,-2.8833,-2.8835,0,0,0,0,0,0,0,0,-2.8468,-2.847,-2.8593,-2.8594,-2.8595,-2.868,-2.8681,-2.8682,-2.8733,-2.8734,-2.8734,-2.8734,-2.8819,-2.8821,-2.8824,0,0,0,0,0,0,0,0,0,0,0,0,0,0,0,-2.8593,-2.8594,0,-2.868,-2.8681,-2.8682,-2.8733,-2.8734,-2.8734,-2.8734,-2.8819,-2.8821,-2.8823,0,0,0,0,0,0,0,0,0,0,0,0,0,0,0,0,0,0,0,0,0,0,0,0,0,0,0,0,0,0,0,0,0,0,0,0,0,0,0,0,0,0,0,0,0,0,0,0,0,0,0,0,0,0,0,0,0,0,0,0,0,0,0,0,0,0,0,0,0]}],[{"header":{"parameterUnit":"kt","parameterCategory":2,"dx":1,"dy":1,"la1":30.253999710083008,"la2":30.299108505249023,"lo1":-89.0895004272461,"lo2":-89.04439544677734,"nx":28,"ny":28,"refTime":"2022-10-19T09:00:00:Z","depth":0,"parameterNumber":2,"parameterNumberName":"V-component_of_WINDS"},"data":[-1.9068,-1.9103,-1.9087,-1.912,-1.9112,-1.9132,-1.9135,-1.9136,-1.9134,-1.9158,-1.9169,-1.9158,-1.9151,-1.9161,-1.9173,-1.9168,-1.9175,-1.9198,-1.9189,-1.9095,-1.9081,-1.9068,-1.9057,-1.92,-1.92,-1.9287,-1.9288,-1.9289,-1.9001,-1.8992,-1.9005,-1.9007,-1.9018,-1.8986,-1.8985,-1.8997,-1.9017,-1.9014,-1.9024,-1.9044,-1.9059,-1.9043,-1.9055,-1.9072,-1.9058,-1.9076,-1.9074,-1.9074,-1.8973,-1.8963,-1.9087,-1.9087,-1.9087,-1.9087,-1.9087,-1.9087,-1.8875,-1.8896,-1.8888,-1.8901,-1.8898,-1.89,-1.8918,-1.8903,-1.8916,-1.8925,-1.8905,-1.8927,-1.8922,-1.8929,-1.8928,-1.8946,-1.8923,-1.8938,-1.8942,-1.8947,-1.8953,-1.8829,-1.8947,-1.8947,-1.8946,-1.8946,-1.8946,0,-1.8777,-1.8762,-1.8773,-1.878,-1.8789,-1.8793,-1.8794,-1.8805,-1.8769,-1.8782,-1.8799,-1.8806,-1.8822,-1.8837,-1.8845,-1.884,-1.8808,-1.8804,-1.8814,-1.8824,-1.8832,-1.8828,-1.8664,-1.88,-1.8799,-1.8798,-1.8797,-1.8797,-1.8648,-1.8676,-1.8659,-1.8669,-1.8665,-1.8682,-1.8689,-1.8655,-1.8664,-1.8661,-1.8683,-1.8697,-1.8707,-1.8739,-1.8722,-1.8734,-1.8719,-1.8772,-1.872,-1.8729,-1.8719,-1.8718,-1.872,-1.8783,-1.8785,-1.8786,-1.8787,0,-1.8577,-1.855,-1.8587,-1.8568,-1.8564,-1.8595,-1.8579,-1.86,-1.8583,-1.861,-1.8614,-1.8588,-1.8606,-1.858,-1.8596,-1.8582,-1.8635,-1.862,-1.8636,-1.8631,-1.8676,-1.8672,-1.8827,-1.8846,-1.8698,-1.8699,-1.8701,0,-1.8456,-1.8494,-1.8451,-1.8475,-1.8515,-1.8479,-1.8521,-1.851,-1.8504,-1.8525,-1.8483,-1.8504,-1.8467,-1.8485,-1.8465,-1.8503,-1.8506,-1.8498,-1.8492,-1.8501,-1.8502,-1.8506,-1.8499,-1.8477,-1.8477,-1.8476,-1.8475,0,-1.8347,-1.8369,-1.8406,-1.8406,-1.839,-1.8408,-1.8403,-1.8395,-1.8403,-1.8409,-1.8413,-1.8424,-1.8429,-1.8438,-1.8411,-1.8377,-1.8458,-1.8405,-1.8449,-1.845,-1.8468,-1.8467,-1.8611,-1.8474,-1.8474,-1.8474,-1.8474,0,-1.8245,-1.825,-1.8308,-1.8293,-1.83,-1.8325,-1.8331,-1.8346,-1.8342,-1.833,-1.8335,-1.8304,-1.8335,-1.8285,-1.8327,-1.829,-1.8299,-1.8293,-1.8296,-1.8297,-1.8241,-1.8325,-1.8465,-1.8478,-1.8298,-1.8297,-1.8295,0,-1.8127,-1.8179,-1.8147,-1.8204,-1.8224,-1.8174,-1.8202,-1.8199,-1.8185,-1.8201,-1.8185,-1.8204,-1.8161,-1.8163,-1.8188,-1.8173,-1.8222,-1.8166,-1.8191,-1.8192,-1.8192,-1.8321,-1.8348,-1.8437,-1.8276,-1.8278,-1.828,0,-1.8032,-1.801,-1.8023,-1.8021,-1.801,-1.8027,-1.8059,-1.8068,-1.808,-1.8082,-1.8108,-1.8134,-1.8102,-1.8106,-1.8082,-1.811,-1.8188,-1.8072,-1.8071,-1.8094,-1.8265,-1.829,-1.8305,-1.8166,-1.8169,-1.817,-1.8265,0,-1.7883,-1.7905,-1.7937,-1.7936,-1.7945,-1.7979,-1.7948,-1.7961,-1.7937,-1.792,-1.7959,-1.795,-1.7961,-1.7971,-1.7948,-1.8018,-1.8002,-1.7969,-1.7917,-1.8002,-1.8032,-1.8045,-1.7874,-1.7873,-1.7871,-1.787,0,0,-1.7777,-1.7808,-1.7771,-1.78,-1.7805,-1.7752,-1.7791,-1.7791,-1.779,-1.7795,-1.7766,-1.7802,-1.7796,-1.7846,-1.787,-1.7875,-1.7885,-1.7856,-1.7962,-1.7972,-1.7982,-1.8015,-1.8028,-1.7868,-1.7867,-1.7867,-1.7866,0,-1.7716,-1.7709,-1.7747,-1.7744,-1.7737,-1.7718,-1.7727,-1.7712,-1.7704,-1.7741,-1.7698,-1.7718,-1.7747,-1.7747,-1.775,-1.785,-1.7817,-1.7855,-1.7918,-1.7949,-1.7961,-1.7972,-1.8007,-1.802,-1.7863,-1.7863,-1.7863,0,-1.7616,-1.7604,-1.7619,-1.7627,-1.7622,-1.7645,-1.7583,-1.7609,-1.7625,-1.7568,-1.7605,-1.7597,-1.7594,-1.7645,-1.7667,-1.7641,-1.7756,-1.7715,-1.7723,-1.7725,-1.7753,-1.7768,-1.7781,-1.7608,-1.7607,-1.7607,0,0,-1.7567,-1.7587,-1.7563,-1.7611,-1.7611,-1.7583,-1.7592,-1.7567,-1.7564,-1.7564,-1.7551,-1.7551,-1.7568,-1.758,-1.7594,-1.7654,-1.7651,-1.7685,-1.7697,-1.7707,-1.7714,-1.7745,-1.776,-1.7604,-1.7604,-1.7604,0,0,-1.7544,-1.7518,-1.7492,-1.7544,-1.7542,-1.7522,-1.7553,-1.7522,-1.7531,-1.7524,-1.7486,-1.7484,-1.7531,-1.7525,-1.7489,-1.7575,-1.7525,-1.7533,-1.7578,-1.7592,-1.7604,-1.7605,-1.7425,0,0,0,0,0,-1.7465,-1.752,-1.7498,-1.7502,-1.7512,-1.7535,-1.7536,-1.7504,-1.7469,-1.7494,-1.7479,-1.7443,-1.7497,-1.7464,-1.747,-1.751,-1.7566,-1.7573,-1.7579,-1.765,-1.7666,-1.7679,0,0,0,0,0,0,-1.7466,-1.7471,-1.7496,-1.7479,-1.7481,-1.7532,-1.7466,-1.7459,-1.7465,-1.7458,-1.7447,-1.7443,-1.7417,-1.746,-1.7465,-1.7504,-1.7423,-1.7569,-1.7574,-1.7579,-1.7656,-1.7669,-1.768,0,0,0,0,0,-1.7467,-1.7471,-1.7495,-1.7478,-1.748,-1.7451,-1.7463,-1.7457,-1.7462,-1.7438,-1.7433,-1.7437,-1.7419,-1.7421,-1.7463,-1.7502,-1.7419,-1.7421,-1.7572,-1.7577,-1.7581,-1.7662,0,0,0,0,0,0,-1.7468,-1.7466,-1.7495,-1.7494,-1.7454,-1.7448,-1.7445,-1.7456,-1.7441,-1.7436,-1.7426,-1.742,-1.7421,-1.7423,-1.7425,-1.7503,-1.7416,-1.7418,-1.7419,-1.7576,-1.7579,-1.7582,0,0,0,0,0,0,-1.7463,-1.7466,-1.7494,-1.7466,-1.7462,-1.7445,-1.7443,-1.7473,-1.7442,-1.743,-1.7424,-1.7424,-1.7419,-1.7424,-1.7425,-1.7474,-1.7414,-1.7416,-1.7417,-1.7418,-1.7579,-1.7581,0,0,0,0,0,0,-1.7464,-1.7466,-1.7466,-1.7463,-1.7459,-1.745,-1.7471,-1.7484,-1.7416,-1.7431,-1.7409,-1.7406,-1.7421,-1.7422,-1.7426,-1.7475,-1.7475,-1.7414,-1.7415,-1.7416,-1.7417,0,0,0,0,0,0,0,-1.7464,-1.7459,-1.7498,-1.746,-1.7457,-1.7488,-1.7488,-1.7488,-1.7415,-1.7412,-1.741,-1.7407,-1.7402,-1.7404,-1.7406,-1.7475,0,0,-1.7413,-1.7414,0,0,0,0,0,0,0,0,-1.7457,-1.7458,-1.7498,-1.7498,-1.7498,-1.7488,-1.7488,-1.7488,-1.7415,-1.7413,-1.741,-1.7408,-1.7402,-1.7404,-1.7406,0,0,0,0,0,0,0,0,0,0,0,0,0,0,0,-1.7498,-1.7498,0,-1.7488,-1.7488,-1.7488,-1.7414,-1.7413,-1.7411,-1.7409,-1.7403,-1.7404,-1.7406,0,0,0,0,0,0,0,0,0,0,0,0,0,0,0,0,0,0,0,0,0,0,0,0,0,0,0,0,0,0,0,0,0,0,0,0,0,0,0,0,0,0,0,0,0,0,0,0,0,0,0,0,0,0,0,0,0,0,0,0,0,0,0,0,0,0,0,0,0]}]]]